User: anonymous   Login
Location: Unspecified
(49.9820°N, 20.4363°E)
Time: 07:31:26
(UTC+02:00)
Language:

Injun/Solrad 3 - Orbit

View from above orbital plane
View from above orbital plane
View from above satellite
View from above satellite

Ground track
Ground track

The orbit is defined by the following mean orbital elements,

1 00117U          26133.34007988 +.00000000 +00000-0 +33087-4 0 00001
2 00117  66.8116  90.0991 0082175 318.5101  40.9757 13.90187134    08
Epoch (UTC): 13 May 2026 08:09:42
Eccentricity: 0.0082175
inclination: 66.8116°
perigee height: 868 km
apogee height: 988 km
right ascension of ascending node: 90.0991°
argument of perigee: 318.5101°
revolutions per day: 13.90187134
mean anomaly at epoch: 40.9757°

The dashed part of the orbit path shows where the satellite is in the earth's shadow,  

DLR